KF5WOE-13 Weather Reports


Display with metric or nautical units.
time (UTC)temp
F
wind
direction
speed
MPH
gust
MPH
rain 1hr
in
rain 24hr
in
rain mn
in
humidity
%
barometer
mb
20260509224205 140 343 0.0 0.0 0.00 0.01 0.01 1007.1
20260509223702 140 38 0.0 0.0 0.00 0.01 0.01 1007.0
20260509223159 140 82 0.0 0.0 0.00 0.01 0.01 1007.2
20260509222656 140 173 0.0 0.0 0.00 0.01 0.01 1007.4
20260509222152 140 47 0.0 0.0 0.00 0.01 0.01 1007.1
20260509221648 140 123 0.0 0.0 0.00 0.01 0.01 1007.2
20260509221143 140 124 3.0 5.0 0.00 0.01 0.01 1007.4
20260509220640 140 123 0.0 0.0 0.00 0.01 0.01 1007.6
20260509220136 140 227 0.0 0.0 0.00 0.01 0.01 1007.6
20260509215632 140 193 0.0 0.0 0.00 0.01 0.01 1007.2
20260509215129 140 225 0.0 0.0 0.00 0.01 0.01 1007.6
20260509214626 140 138 3.0 3.0 0.00 0.01 0.01 1007.8
20260509214123 140 220 0.0 0.0 0.00 0.01 0.01 1007.7
20260509213619 140 183 5.0 7.0 0.00 0.01 0.01 1007.7
20260509213115 140 148 1.0 2.0 0.00 0.01 0.01 1007.6
20260509212613 140 181 3.0 5.0 0.00 0.01 0.01 1007.8
20260509212110 140 50 0.0 2.0 0.00 0.01 0.01 1007.8
20260509211606 140 90 4.0 5.0 0.00 0.01 0.01 1007.8
20260509211103 140 228 0.0 0.0 0.00 0.01 0.01 1007.7
20260509210559 140 72 6.0 8.0 0.00 0.01 0.01 1007.8
20260509210056 140 0 0.0 0.0 0.00 0.01 0.01 1008.0
20260509205550 140 332 0.0 0.0 0.00 0.01 0.01 1008.4
20260509205045 140 84 2.0 3.0 0.00 0.01 0.01 1008.3
20260509204541 140 47 0.0 0.0 0.00 0.01 0.01 1008.4
20260509204038 140 122 0.0 0.0 0.00 0.01 0.01 1008.5
20260509203533 140 346 5.0 6.0 0.00 0.01 0.01 1008.6
20260509203032 140 22 0.0 0.0 0.00 0.01 0.01 1008.6
20260509202527 140 8 0.0 0.0 0.00 0.01 0.01 1008.5
20260509202023 140 328 0.0 0.0 0.00 0.01 0.01 1008.9
20260509201518 140 263 0.0 0.0 0.00 0.01 0.01 1008.6
20260509201016 140 312 0.0 0.0 0.00 0.01 0.01 1008.4
20260509200510 140 288 5.0 7.0 0.00 0.01 0.01 1008.9
20260509200007 140 0 2.0 3.0 0.00 0.01 0.01 1008.8
20260509195502 140 131 0.0 0.0 0.00 0.01 0.01 1009.0
20260509195001 140 267 0.0 0.0 0.00 0.01 0.01 1008.8
20260509194457 140 340 7.0 8.0 0.00 0.01 0.01 1009.1
20260509193955 140 295 0.0 0.0 0.00 0.01 0.01 1009.0
20260509193454 140 217 0.0 0.0 0.00 0.01 0.01 1009.2
20260509192951 140 34 1.0 3.0 0.00 0.01 0.01 1009.1
20260509192448 140 57 3.0 5.0 0.00 0.01 0.01 1009.4
20260509191943 140 58 0.0 0.0 0.00 0.01 0.01 1009.2
20260509191438 140 205 0.0 0.0 0.00 0.01 0.01 1009.5
20260509190934 140 290 0.0 0.0 0.00 0.01 0.01 1009.4
20260509190431 140 268 0.0 0.0 0.00 0.01 0.01 1009.5
20260509185929 140 325 0.0 0.0 0.00 0.01 0.01 1009.5
20260509185426 140 317 0.0 0.0 0.00 0.01 0.01 1009.7
20260509184923 140 286 0.0 0.0 0.00 0.01 0.01 1009.7
20260509184421 140 248 0.0 0.0 0.00 0.01 0.01 1009.8
20260509183917 140 351 6.0 8.0 0.00 0.01 0.01 1009.6
20260509183411 140 305 0.0 0.0 0.00 0.01 0.01 1009.7
20260509182908 140 310 0.0 0.0 0.00 0.01 0.01 1010.0
20260509182405 140 74 0.0 0.0 0.00 0.01 0.01 1010.0
20260509181902 140 12 0.0 0.0 0.00 0.01 0.01 1010.1
20260509181400 140 349 0.0 1.0 0.00 0.01 0.01 1010.1
20260509180857 140 299 0.0 0.0 0.00 0.01 0.01 1010.3
20260509180352 140 342 4.0 6.0 0.00 0.01 0.01 1010.3
20260509175849 140 250 3.0 3.0 0.00 0.01 0.01 1010.2
20260509175345 140 219 0.0 0.0 0.00 0.01 0.01 1010.5
20260509174841 140 331 3.0 5.0 0.00 0.01 0.01 1010.4
20260509174338 140 231 3.0 3.0 0.00 0.01 0.01 1010.3
20260509173834 140 270 5.0 5.0 0.00 0.01 0.01 1010.3
20260509173329 140 250 5.0 7.0 0.00 0.01 0.01 1010.5
20260509172825 140 324 5.0 8.0 0.00 0.01 0.01 1010.5
20260509172322 140 254 0.0 0.0 0.00 0.01 0.01 1010.5
20260509171818 140 286 1.0 3.0 0.00 0.01 0.01 1010.4
20260509171314 140 269 1.0 2.0 0.00 0.01 0.01 1010.5
20260509170811 140 309 0.0 0.0 0.00 0.01 0.01 1010.7
20260509170307 140 327 0.0 0.0 0.00 0.01 0.01 1011.0
20260509165806 140 273 5.0 6.0 0.00 0.01 0.01 1010.7
20260509165301 140 265 0.0 0.0 0.00 0.01 0.01 1010.8
20260509164757 140 257 6.0 7.0 0.00 0.01 0.01 1011.1
20260509164254 140 280 7.0 10.0 0.00 0.01 0.01 1011.1
20260509163750 140 290 0.0 2.0 0.00 0.01 0.01 1011.2
20260509163247 140 301 0.0 1.0 0.00 0.01 0.01 1011.3
20260509162745 140 209 0.0 0.0 0.00 0.01 0.01 1011.2
20260509162239 140 304 2.0 2.0 0.00 0.01 0.01 1011.2
20260509161736 140 295 1.0 3.0 0.00 0.01 0.01 1011.1
20260509161232 140 242 5.0 7.0 0.00 0.01 0.01 1011.0
20260509160727 140 283 1.0 2.0 0.00 0.01 0.01 1011.2
20260509160224 140 299 7.0 8.0 0.00 0.01 0.01 1011.4
20260509155718 140 216 3.0 3.0 0.00 0.01 0.01 1011.4
20260509155216 140 247 4.0 5.0 0.00 0.01 0.01 1011.3
20260509154711 140 303 3.0 5.0 0.00 0.01 0.01 1011.1
20260509154209 140 288 2.0 5.0 0.00 0.01 0.01 1011.1
20260509153706 140 265 5.0 7.0 0.00 0.01 0.01 1011.2
20260509153202 140 358 0.0 1.0 0.00 0.01 0.01 1011.2
20260509152658 140 302 2.0 3.0 0.00 0.01 0.01 1011.3
20260509152155 140 341 6.0 7.0 0.00 0.01 0.01 1011.2
20260509151652 140 353 0.0 1.0 0.00 0.01 0.01 1011.3
20260509151149 140 288 1.0 2.0 0.00 0.01 0.01 1011.3
20260509150647 140 14 4.0 6.0 0.00 0.01 0.01 1011.1
20260509150145 140 335 5.0 6.0 0.00 0.01 0.01 1011.3
20260509145641 140 307 0.0 0.0 0.00 0.01 0.01 1011.4
20260509145136 140 286 1.0 2.0 0.00 0.01 0.01 1011.3
20260509144633 140 283 4.0 8.0 0.00 0.01 0.01 1011.4
20260509144130 140 332 2.0 6.0 0.00 0.01 0.01 1011.5
20260509143627 140 13 6.0 8.0 0.00 0.01 0.01 1011.4
20260509143125 140 359 5.0 7.0 0.00 0.01 0.01 1011.5
20260509142620 140 327 6.0 7.0 0.00 0.01 0.01 1011.5
20260509142117 140 315 3.0 5.0 0.00 0.01 0.01 1011.6
20260509141613 140 309 4.0 6.0 0.00 0.01 0.01 1011.7
20260509141109 140 296 3.0 5.0 0.00 0.01 0.01 1011.6
20260509140606 140 344 4.0 6.0 0.00 0.01 0.01 1011.9
20260509140104 140 345 4.0 5.0 0.00 0.01 0.01 1011.6
20260509135601 140 325 3.0 7.0 0.00 0.01 0.01 1011.8
20260509135059 140 325 3.0 6.0 0.00 0.01 0.01 1011.6
20260509134555 140 305 3.0 5.0 0.00 0.01 0.01 1011.5
20260509134053 140 315 4.0 7.0 0.00 0.01 0.01 1011.7
20260509133550 140 299 3.0 5.0 0.00 0.01 0.01 1011.6
20260509133047 140 16 8.0 9.0 0.00 0.01 0.01 1011.6
20260509132546 140 7 9.0 10.0 0.00 0.01 0.01 1011.6
20260509132044 140 13 13.0 16.0 0.00 0.01 0.01 1011.7
20260509131539 140 358 11.0 11.0 0.00 0.01 0.01 1011.4
20260509131037 140 1 7.0 8.0 0.00 0.01 0.01 1011.3
20260509130532 140 23 7.0 8.0 0.00 0.01 0.01 1011.5
20260509130029 140 16 7.0 11.0 0.00 0.01 0.01 1011.4
20260509125525 140 32 4.0 6.0 0.00 0.01 0.01 1011.5
20260509125022 140 14 3.0 5.0 0.00 0.01 0.01 1011.6
20260509124519 140 10 5.0 6.0 0.00 0.01 0.01 1011.7
20260509124016 140 333 0.0 0.0 0.00 0.01 0.01 1011.5
20260509123514 140 322 1.0 2.0 0.00 0.01 0.01 1011.4
20260509123010 140 11 5.0 6.0 0.00 0.01 0.01 1011.5
20260509122506 140 356 0.0 0.0 0.00 0.01 0.01 1011.5
20260509122003 140 271 0.0 0.0 0.00 0.01 0.01 1011.5
20260509121500 140 278 0.0 0.0 0.00 0.01 0.01 1011.5
20260509120958 140 340 0.0 0.0 0.00 0.01 0.01 1011.4
20260509120455 140 207 0.0 0.0 0.00 0.01 0.01 1011.3
20260509115954 140 260 0.0 0.0 0.00 0.01 0.01 1011.2
20260509115451 140 190 0.0 0.0 0.00 0.01 0.01 1011.4
20260509114948 140 233 0.0 0.0 0.00 0.01 0.01 1010.8
20260509114446 140 160 0.0 0.0 0.00 0.01 0.01 1011.0
20260509113945 140 244 0.0 0.0 0.00 0.01 0.01 1011.0
20260509113442 140 276 3.0 3.0 0.00 0.01 0.01 1010.7
20260509112939 140 326 3.0 3.0 0.00 0.01 0.01 1010.4
20260509112437 140 328 6.0 10.0 0.00 0.01 0.01 1010.3
20260509111933 140 337 7.0 8.0 0.00 0.01 0.01 1010.1
20260509111431 140 300 5.0 8.0 0.00 0.01 0.01 1010.1
20260509110928 140 329 4.0 5.0 0.00 0.01 0.01 1010.1
20260509110423 140 328 9.0 11.0 0.00 0.01 0.01 1010.1
20260509105922 140 316 6.0 7.0 0.00 0.01 0.01 1009.7
20260509105420 140 343 5.0 6.0 0.00 0.01 0.01 1009.8
20260509104917 140 328 3.0 3.0 0.00 0.01 0.01 1009.5
20260509104414 140 325 5.0 6.0 0.00 0.01 0.01 1009.7
20260509103911 140 356 5.0 6.0 0.00 0.01 0.01 1009.7
20260509103408 140 342 5.0 6.0 0.00 0.01 0.01 1009.8
20260509102907 140 19 7.0 9.0 0.00 0.01 0.01 1009.6
20260509102403 140 329 4.0 6.0 0.00 0.01 0.01 1009.6
20260509101853 140 0 4.0 5.0 0.00 0.01 0.01 1009.8
20260509101350 140 26 3.0 5.0 0.00 0.01 0.01 1009.8
20260509100848 140 23 1.0 1.0 0.00 0.01 0.01 1009.9
20260509100344 140 43 4.0 5.0 0.00 0.01 0.01 1009.9
20260509095841 140 328 0.0 0.0 0.00 0.01 0.01 1009.9
20260509095338 140 325 0.0 0.0 0.00 0.01 0.01 1009.9
20260509094836 140 354 4.0 5.0 0.00 0.01 0.01 1009.8
20260509094332 140 322 4.0 5.0 0.00 0.01 0.01 1009.9
20260509093830 140 358 4.0 5.0 0.00 0.01 0.01 1010.0
20260509093327 140 357 9.0 10.0 0.00 0.01 0.01 1009.9
20260509092825 140 345 4.0 5.0 0.00 0.01 0.01 1009.5
20260509092323 140 324 9.0 10.0 0.00 0.01 0.01 1009.5
20260509091821 140 279 10.0 13.0 0.00 0.01 0.01 1008.9
20260509091317 140 310 13.0 18.0 0.00 0.01 0.01 1009.0
20260509090815 140 232 4.0 5.0 0.00 0.01 0.01 1008.0
20260509090312 140 228 3.0 3.0 0.00 0.01 0.01 1007.4
20260509085809 140 132 3.0 5.0 0.00 0.01 0.01 1006.7
20260509085307 140 167 3.0 3.0 0.00 0.01 0.01 1006.2
20260509084803 140 130 10.0 13.0 0.00 0.01 0.01 1005.8
20260509084300 140 138 9.0 11.0 0.00 0.01 0.01 1006.2
20260509083757 140 117 5.0 7.0 0.00 0.01 0.01 1006.7
20260509083254 140 131 5.0 7.0 0.00 0.01 0.01 1007.4
20260509082750 140 125 4.0 5.0 0.00 0.01 0.01 1008.1
20260509082247 140 164 0.0 0.0 0.00 0.01 0.01 1008.5
20260509081744 140 131 0.0 0.0 0.00 0.01 0.01 1008.6
20260509081242 140 183 2.0 2.0 0.00 0.01 0.01 1008.8
20260509080740 140 276 6.0 7.0 0.00 0.01 0.01 1009.0
20260509080237 140 242 7.0 9.0 0.00 0.01 0.01 1009.2
20260509075735 140 227 10.0 11.0 0.00 0.01 0.01 1009.6
20260509075232 140 229 10.0 11.0 0.00 0.01 0.01 1009.3
20260509074729 140 245 13.0 16.0 0.00 0.01 0.01 1009.6
20260509074227 140 226 0.0 0.0 0.00 0.01 0.01 1008.8
20260509073723 140 310 0.0 0.0 0.00 0.01 0.01 1009.0
20260509073219 140 340 0.0 0.0 0.00 0.01 0.01 1009.0
20260509072716 140 352 0.0 0.0 0.00 0.01 0.01 1009.2
20260509072213 140 326 4.0 6.0 0.00 0.01 0.01 1009.3
20260509071709 140 12 6.0 7.0 0.00 0.01 0.01 1009.9
20260509071207 140 22 6.0 7.0 0.00 0.01 0.01 1010.1
20260509070703 140 14 5.0 7.0 0.00 0.01 0.01 1010.2
20260509070159 140 38 4.0 6.0 0.00 0.01 0.01 1010.8
20260509065650 140 358 6.0 7.0 0.00 0.01 0.01 1011.5
20260509065147 140 358 7.0 9.0 0.00 0.01 0.01 1011.7
20260509064643 140 347 15.0 18.0 0.00 0.01 0.01 1012.2
20260509064141 140 8 12.0 15.0 0.00 0.01 0.01 1012.3
20260509063638 140 19 20.0 26.0 0.07 0.01 0.01 1012.8
20260509063134 140 6 24.0 29.0 0.07 0.01 0.01 1012.6
20260509062632 140 22 28.0 37.0 0.00 0.00 0.00 1013.1
20260509062129 140 218 17.0 18.0 0.00 0.00 0.00 1012.7
20260509061625 140 343 14.0 22.0 0.00 0.00 0.00 1012.9
20260509061123 140 11 10.0 14.0 0.00 0.00 0.00 1013.1
20260509060621 140 317 1.0 3.0 0.00 0.00 0.00 1012.6
20260509060116 140 314 3.0 6.0 0.00 0.00 0.00 1012.4
20260509055612 140 342 7.0 8.0 0.00 0.00 0.00 1012.5
20260509055108 140 358 0.0 1.0 0.00 0.00 0.00 1012.3
20260509054605 140 7 5.0 10.0 0.00 0.00 0.00 1012.4
20260509054103 140 350 0.0 0.0 0.00 0.00 0.00 1011.8
20260509053601 140 1 4.0 8.0 0.00 0.00 0.00 1012.0
20260509053058 140 337 0.0 0.0 0.00 0.00 0.00 1011.5
20260509052555 140 18 0.0 0.0 0.00 0.00 0.00 1011.6
20260509052053 140 338 4.0 7.0 0.00 0.00 0.00 1011.4
20260509051551 140 9 0.0 0.0 0.00 0.00 0.00 1010.7
20260509051047 140 108 0.0 0.0 0.00 0.00 0.00 1010.6
20260509050544 140 156 0.0 0.0 0.00 0.00 0.00 1010.4
20260509050041 140 113 0.0 0.0 0.00 0.00 0.00 1010.7
20260509045538 140 59 0.0 0.0 0.00 0.00 0.00 1010.7
20260509045035 140 59 0.0 0.0 0.00 0.00 0.00 1010.7
20260509044533 140 50 0.0 0.0 0.00 0.00 0.00 1010.5
20260509044030 140 66 0.0 0.0 0.00 0.00 0.00 1010.2
20260509043526 140 104 0.0 0.0 0.00 0.00 0.00 1010.3
20260509043022 140 72 0.0 0.0 0.00 0.00 0.00 1010.4
20260509042518 140 33 0.0 0.0 0.00 0.00 0.00 1010.1
20260509042015 140 58 0.0 1.0 0.00 0.00 0.00 1010.0
20260509041512 140 82 0.0 0.0 0.00 0.00 0.00 1009.8
20260509041009 140 107 0.0 0.0 0.00 0.00 0.00 1009.9
20260509040507 140 121 0.0 0.0 0.00 0.00 0.00 1009.7
20260509040004 140 165 0.0 0.0 0.00 0.03 0.03 1009.7
20260509035501 140 178 0.0 0.0 0.00 0.03 0.03 1009.4
20260509034957 140 166 0.0 0.0 0.00 0.03 0.03 1009.7
20260509034455 140 115 0.0 0.0 0.00 0.03 0.03 1009.7
20260509033952 140 121 0.0 0.0 0.00 0.03 0.03 1009.5
20260509033449 140 132 0.0 0.0 0.00 0.03 0.03 1009.4
20260509032945 140 154 0.0 0.0 0.00 0.03 0.03 1009.3
20260509032443 140 121 0.0 0.0 0.00 0.03 0.03 1009.1
20260509031941 140 141 0.0 0.0 0.00 0.03 0.03 1008.9
20260509031438 140 164 0.0 0.0 0.00 0.03 0.03 1008.7
20260509030935 140 166 0.0 0.0 0.00 0.03 0.03 1008.8
20260509030433 140 138 0.0 1.0 0.00 0.03 0.03 1008.8
20260509025930 140 158 2.0 6.0 0.00 0.03 0.03 1008.9
20260509025425 140 164 3.0 5.0 0.00 0.03 0.03 1008.5
20260509024920 140 179 4.0 7.0 0.00 0.03 0.03 1008.4
20260509024417 140 181 1.0 3.0 0.00 0.03 0.03 1008.3
20260509023914 140 160 0.0 0.0 0.00 0.03 0.03 1008.4
20260509023412 140 166 0.0 0.0 0.00 0.03 0.03 1008.5
20260509022908 140 156 0.0 0.0 0.00 0.03 0.03 1008.3
20260509022405 140 138 0.0 0.0 0.00 0.03 0.03 1008.5
20260509021903 140 149 0.0 0.0 0.00 0.03 0.03 1008.3
20260509021400 140 149 0.0 0.0 0.00 0.03 0.03 1008.3
20260509020857 140 139 0.0 0.0 0.00 0.03 0.03 1008.4
20260509020355 140 110 0.0 0.0 0.00 0.03 0.03 1008.3
20260509015852 140 129 0.0 0.0 0.00 0.03 0.03 1008.2
20260509015350 140 119 0.0 0.0 0.00 0.03 0.03 1008.2
20260509014846 140 125 0.0 0.0 0.00 0.03 0.03 1008.3
20260509014344 140 155 0.0 0.0 0.00 0.03 0.03 1008.1
20260509013840 140 101 0.0 0.0 0.00 0.03 0.03 1008.0
20260509013337 140 120 0.0 0.0 0.00 0.03 0.03 1008.2
20260509012832 140 128 0.0 0.0 0.00 0.03 0.03 1008.1
20260509012329 140 133 0.0 0.0 0.00 0.03 0.03 1008.1
20260509011827 140 122 0.0 0.0 0.00 0.03 0.03 1008.3
20260509011324 140 125 0.0 0.0 0.00 0.03 0.03 1008.1
20260509010821 140 106 0.0 0.0 0.00 0.03 0.03 1008.1
20260509010318 140 97 5.0 6.0 0.00 0.03 0.03 1008.1
20260509005816 140 93 0.0 0.0 0.00 0.03 0.03 1008.0
20260509005314 140 101 0.0 0.0 0.00 0.03 0.03 1008.1
20260509004813 140 107 0.0 0.0 0.00 0.03 0.03 1007.8
20260509004305 140 122 0.0 0.0 0.00 0.03 0.03 1008.0
20260509003803 140 122 0.0 0.0 0.00 0.03 0.03 1007.8
20260509003300 140 130 1.0 7.0 0.00 0.03 0.03 1007.7
20260509002757 140 132 0.0 0.0 0.00 0.03 0.03 1007.8
20260509002254 140 117 0.0 0.0 0.00 0.03 0.03 1007.6
20260509001752 140 114 2.0 7.0 0.00 0.03 0.03 1007.9
20260509001248 140 147 0.0 0.0 0.00 0.03 0.03 1007.9
20260509000746 140 138 0.0 0.0 0.00 0.03 0.03 1008.1
20260509000243 140 126 0.0 1.0 0.00 0.03 0.03 1008.1
20260508235739 140 86 0.0 0.0 0.00 0.03 0.03 1008.2
20260508235236 140 103 0.0 0.0 0.00 0.03 0.03 1008.0
20260508234734 140 95 0.0 0.0 0.00 0.03 0.03 1008.2
20260508234230 140 136 0.0 0.0 0.00 0.03 0.03 1008.1
20260508233729 140 120 0.0 0.0 0.00 0.03 0.03 1008.4
20260508233227 140 157 6.0 7.0 0.00 0.03 0.03 1008.2
20260508232724 140 108 0.0 0.0 0.00 0.03 0.03 1008.6
20260508232221 140 166 2.0 3.0 0.00 0.03 0.03 1008.5
20260508231719 140 126 0.0 0.0 0.00 0.03 0.03 1008.3
20260508231215 140 157 0.0 0.0 0.00 0.03 0.03 1008.3
20260508230712 140 93 1.0 1.0 0.00 0.03 0.03 1008.5
20260508230208 140 137 0.0 0.0 0.00 0.03 0.03 1008.5
20260508225706 140 198 1.0 2.0 0.00 0.03 0.03 1008.3
20260508225202 140 112 0.0 0.0 0.00 0.03 0.03 1008.3
20260508224700 140 189 6.0 7.0 0.00 0.03 0.03 1008.4